Home   Weather   Perth   Past weeks

Flag for Australia Past Weather in Perth, Western Australia, Australia — Yesterday and Last 2 Weeks

Now
66 °F

Sunny.


Feels Like: 66 °F
Forecast: 49 / 59 °F
Wind: 10 mph from Northwest

Location: Belmont Perth Airport

Current Time: Aug 18, 2017 at 5:02:00 pm

Latest Report: Aug 18, 2017 at 4:30 pm


Visibility: 10 mi

Pressure: 29.92 "Hg

Humidity: 40%

Dew Point: 41 °F

Location of PerthLocation

Past Weather in Perth — Graph

°F

Perth Temperature Yesterday

Maximum temperature yesterday: 64 °F (at 3:00 pm)
Minimum temperature yesterday: 41 °F (at 2:30 am)
Average temperature yesterday: 52 °F

High & Low Weather Summary for the Past Weeks

 TemperatureHumidityPressure
High70 °F (Aug 18, 1:30 pm)100% (Aug 3, 3:00 pm)30.24 "Hg (Aug 3, 3:00 pm)
Low41 °F (Aug 17, 2:30 am)28% (Aug 18, 11:30 am)29.53 "Hg (Aug 9, 4:00 am)
Average56 °F76%29.95 "Hg
* Reported Aug 3 3:00 pm — Aug 18 3:30 pm, Perth. Weather by CustomWeather, © 2017

Note: Actual official high and low records may vary slightly from our data, if they occured in-between our weather recording intervals... More about our weather records

Advertising

Perth Weather History for the Previous 24 Hours

Scroll right to see more
 ConditionsComfort  
Time TempWeatherWind HumidityBarometerVisibility
3:30 pm
Fri, Aug 18
66 °FSunny.13 mph43%29.95 "Hg10 mi
3:00 pm64 °FSunny.13 mph40%29.95 "Hg10 mi
2:30 pm66 °FSunny.13 mph35%29.92 "Hg10 mi
2:00 pm68 °FPassing clouds.13 mph30%29.92 "HgN/A
1:30 pm70 °FSunny.12 mph31%29.95 "Hg10 mi
1:00 pm68 °FSunny.12 mph28%29.95 "Hg10 mi
12:30 pm68 °FPassing clouds.13 mph28%29.98 "HgN/A
12:00 pm68 °FSunny.13 mph30%29.98 "Hg10 mi
11:30 am66 °FSunny.12 mph28%30.01 "Hg10 mi
11:00 am64 °FSunny.13 mph30%30.01 "Hg10 mi
10:30 am63 °FSunny.12 mph34%30.04 "Hg10 mi
10:00 am63 °FSunny.10 mph37%30.04 "Hg10 mi
9:30 am59 °FSunny.7 mph42%30.04 "Hg10 mi
9:00 am57 °FSunny.7 mph44%30.04 "Hg10 mi
8:00 am54 °FSunny.8 mph54%30.04 "Hg10 mi
7:30 am50 °FSunny.8 mph67%30.04 "Hg10 mi
7:00 am45 °FSunny.6 mph87%30.04 "Hg10 mi
6:30 am46 °FClear.6 mph87%30.04 "Hg10 mi
6:00 am48 °FClear.5 mph82%30.04 "Hg10 mi
5:30 am50 °FPassing clouds.7 mph76%30.04 "HgN/A
5:00 am50 °FClear.7 mph76%30.01 "Hg10 mi
4:30 am50 °FClear.6 mph82%30.04 "Hg10 mi
4:00 am50 °FClear.5 mph76%30.04 "Hg10 mi
3:30 am50 °FClear.6 mph76%30.04 "Hg10 mi
3:00 am50 °FPassing clouds.6 mph76%30.04 "HgN/A
2:30 am52 °FClear.6 mph72%30.04 "Hg10 mi
2:00 am50 °FClear.6 mph76%30.04 "Hg10 mi
1:30 am50 °FPassing clouds.5 mph82%30.04 "HgN/A
1:00 am52 °FClear.3 mph77%30.04 "Hg10 mi
12:30 am52 °FClear.7 mph72%30.04 "Hg10 mi
12:00 am52 °FClear.8 mph72%30.07 "Hg10 mi
11:30 pm
Thu, Aug 17
52 °FPartly cloudy.10 mph72%30.07 "HgN/A
11:00 pm54 °FPartly cloudy.7 mph72%30.07 "HgN/A
10:30 pm52 °FClear.8 mph77%30.07 "Hg10 mi
10:00 pm54 °FClear.1 mph77%30.07 "Hg10 mi
9:30 pm54 °FPassing clouds.6 mph72%30.07 "HgN/A
8:30 pm54 °FClear.8 mph67%30.07 "Hg10 mi
8:00 pm52 °FClear.8 mph72%30.07 "Hg10 mi
7:30 pm52 °FClear.7 mph72%30.07 "Hg10 mi
7:00 pm54 °FClear.8 mph67%30.07 "Hg10 mi
6:30 pm55 °FClear.8 mph63%30.07 "Hg10 mi
6:00 pm57 °FPassing clouds.7 mph55%30.07 "HgN/A
5:30 pm59 °FSunny.13 mph48%30.04 "Hg10 mi
5:00 pm61 °FScattered clouds.13 mph42%30.04 "HgN/A
Weather by CustomWeather, © 2017

See weather overviewHow to use our weather pages